Regional Weather Roundup
Issued by NWS

Home | Current Version | Previous Version | Graphics & Text | Print | Product List | Glossary On
Versions: 1 2 3 4 5 6 7 8 9 10 11 12 13 14 15 16 17 18 19 20 21 22 23 24 25 26 27 28 29 30 31 32 33 34 35 36 37 38 39 40 41 42 43 44 45 46 47 48 49 50
000
ASUS43 KLOT 260406
RWRIL

ILLINOIS REGIONAL WEATHER ROUNDUP
NATIONAL WEATHER SERVICE CHICAGO/ROMEOVILLE IL
1000 PM CST SUN JAN 25 2015

NOTE: "FAIR" INDICATES FEW OR NO CLOUDS BELOW 12,000 FEET WITH NO
SIGNIFICANT WEATHER AND/OR OBSTRUCTIONS TO VISIBILITY.

* THESE STATIONS ARE NOT UNDER NWS QUALITY CONTROL. THEY ALSO MAY NOT
  REPORT WEATHER SUCH AS PRECIPITATION OR FOG.

ILZ001-002-007-009-015-016-024-260500-
NORTHWEST ILLINOIS

CITY           SKY/WX    TMP DP  RH WIND       PRES   REMARKS
MOLINE         CLEAR     20  13  74 N5        30.06F WCI  13
STERLING*      CLEAR     18  10  73 N7        30.05R WCI   8
SAVANNA*       PTCLDY    19  12  74 N6        30.06F WCI  11
$$

ILZ003-004-008-010-011-017-018-260500-
NORTH CENTRAL ILLINOIS

CITY           SKY/WX    TMP DP  RH WIND       PRES   REMARKS
ROCKFORD       CLEAR     19  10  68 N13       30.04S WCI   6
FREEPORT*      CLOUDY    16  11  81 N6        30.06F WCI   8
ROCHELLE*      CLEAR     19  12  75 N9        30.03R WCI   7
DE KALB*       CLEAR     17  11  79 N8        30.00R WCI   6
PERU*          CLEAR     21  16  80 N8        30.02R WCI  11
$$

ILZ005-006-012>014-019>023-260500-
NORTHEAST ILLINOIS

CITY           SKY/WX    TMP DP  RH WIND       PRES   REMARKS
CHICAGO-OHARE  PTCLDY    24  15  68 NE12      29.98S WCI  13
CHICAGO-MIDWAY MOCLDY    27  18  69 NE16      29.98R WCI  15
AURORA         CLEAR     19  13  77 N7        30.00R WCI  10
LANSING*       CLOUDY    26  20  76 NE13G23   29.97S WCI  15
JOLIET*        MOCLDY    24  17  75 N6        29.99R WCI  17
WAUKEGAN       PTCLDY    25  14  63 NE9       30.00R WCI  15
DUPAGE AIRPORT CLEAR     19  13  77 N9        29.99R WCI   8
KANKAKEE*      CLOUDY    28  22  81 NE12      29.96S WCI  17
WHEELING       MOCLDY    25  15  66 NE9       30.01R WCI  15
MORRIS*        CLEAR     24  19  83 N6        29.99R WCI  17
ROMEOVILLE*    CLOUDY    25  18  74 N14       29.99R WCI  13
NORTHERLY ISL    N/A     26  19  75 NE18        N/A  WCI  13
$$

LMZ740>746-260500-
SOUTHERN LAKE MICHIGAN

STATION/POSITION SKY/WX   TEMP    WIND        PRES    VSBY  WAVE
                          AIR SEA DIR/SP/G                  HT/PER
                          (F)     (DEG/KT/KT) (MB)    (MI)  (FT/S)
WAUKEGAN HARBOR            27      40/ 18/ 21   N/A
HARRISON CRIB              26      30/ 17/ 21   N/A
BURNHAM HARBOR             26      30/ 15/ 20   N/A
CALUMET HARBOR             26      30/ 13/ 19   N/A
MICHIGAN CITY              24      20/ 18/ 20   N/A
$$

ILZ025>027-034>036-040-047-049-050-058-095>099-260500-
WEST-CENTRAL ILLINOIS

CITY           SKY/WX    TMP DP  RH WIND       PRES   REMARKS
QUINCY         PTCLDY    26  20  77 N13       30.05R WCI  15
GALESBURG*     PTCLDY    22  18  86 N10       30.04S WCI  11
MACOMB*        CLOUDY    26  21  82 N13       30.08R WCI  15
JACKSONVILLE*  PTCLDY    29  22  75 N10       30.02R WCI  20
PITTSFIELD*    MOCLDY    29  23  78 N15       30.05R WCI  18
$$

ILZ028>032-037-038-041>044-048-051>054-059>061-260500-
CENTRAL ILLINOIS

CITY           SKY/WX    TMP DP  RH WIND       PRES   REMARKS
PONTIAC        CLOUDY    28  23  82 N12       29.99R WCI  18
BLOOMINGTON    CLOUDY    27  23  84 N15       29.97R WCI  15
DECATUR        CLOUDY    30  29  96 N14       29.95R WCI  19
PEORIA         CLEAR     25  17  72 N9        30.02R WCI  15
LACON*         CLEAR     23  16  75 N8        30.03R WCI  13
LINCOLN*       CLOUDY    30  24  80 N13       30.00R WCI  20
SPRINGFIELD    CLOUDY    29  22  75 N14       30.00R WCI  18
TAYLORVILLE    CLOUDY    30  27  86 N21       29.96R WCI  17
$$

ILZ033-039-045-046-055>057-062-063-260500-
EAST-CENTRAL ILLINOIS

CITY           SKY/WX    TMP DP  RH WIND       PRES   REMARKS
CHAMPAIGN      CLOUDY    29  25  85 N17G23    29.92R WCI  17
DANVILLE*      CLOUDY    27  24  87 N17       29.89R WCI  15
RANTOUL*       CLOUDY    30  25  82 N16G24    29.93R WCI  18
MATTOON        CLOUDY    29  25  85 N23G33    29.89R WCI  15
PARIS*         CLOUDY    29  26  88 NE12G24   29.89R WCI  19
$$

ILZ079-100>102-260500-
SOUTHWEST ILLINOIS

CITY           SKY/WX    TMP DP  RH WIND       PRES   REMARKS
ALTON          CLOUDY    32  27  81 N9G22     29.98S WCI  24
BELLEVILLE     CLOUDY    32  31  94 NW16      29.96R WCI  22
CAHOKIA*       CLOUDY    33  28  81 N20       29.98R WCI  21
SPARTA*        CLOUDY    32  30  91 N17G24    29.94R WCI  21
$$

ILZ064>066-069>071-074>076-080>082-084>086-088>090-092>094-260500-
SOUTH-CENTRAL ILLINOIS

CITY           SKY/WX    TMP DP  RH WIND       PRES   REMARKS
CARBONDALE     CLOUDY    35  30  82 N24G32    29.90R WCI  23
CAIRO*         CLOUDY    40  37  88 NW20      29.87R
EFFINGHAM*     CLOUDY    32  27  81 N13G22    29.91R WCI  22
MARION         CLOUDY    36  32  87 N15G23    29.89R WCI  26
MT. VERNON     CLOUDY    34  27  75 N12G23    29.88R WCI  25
CENTRALIA*     CLOUDY    32  29  88 N22G28    29.90R WCI  20
SALEM*         CLOUDY    35  32  88 N13G20    29.90R WCI  26
METROPOLIS*    CLOUDY    38  38 100 NW20      29.82R FOG     WCI  28
$$

ILZ067-068-072-073-078-083-087-091-260500-
SOUTHEAST ILLINOIS

CITY           SKY/WX    TMP DP  RH WIND       PRES   REMARKS
LAWRENCEVILLE  CLOUDY    31  28  89 N20       29.83R WCI  19
FLORA*         CLOUDY    32  28  86 N17G29    29.87R WCI  21
FAIRFIELD*     DRIZZLE   33  31  94 N16G26    29.84R WCI  22
HARRISBURG*    CLOUDY    35  34  97 N13G22    29.86R WCI  26
ROBINSON*      CLOUDY    31  28  88 N16G23    29.85R WCI  19
CARMI*         CLOUDY    36  34  93 N22       29.82R WCI  24
$$

ABBREVIATIONS USED IN REMARKS
   TC - TEMPERATURE IN CELSIUS
  WCI - WIND CHILL INDEX
   HX - HEAT INDEX
  VSB - VISIBILITY
$$



USA.gov is the U.S. government's official web portal to all federal, state and local government web resources and services.